Main page
METAR-TAF:

METAR-TAF

Airports :

Linton-on-Ouse, England

RAF Linton-on-Ouse

latitude: 54-03N, longitude: 001-15W, elevation: 16 m

Current weather observation

The report was made 1 hour and 1 minutes ago, at 03:50 UTC
Wind 20 kt from the West
Temperature 10°C
Humidity 82%
Pressure 998 hPa
Visibility 10 km or more

METAR: EGXU 220350Z AUTO 26020KT 9999 // BKN220/// 10/07 Q0998

Time: 05:51 (04:51 UTC)


TAF: missing

Weather observations and forecasts of more than 4000 airports (METAR and TAF reports).

The available stations are represented by yellow and red dots on the map.

Hover mouse over dot to see the name of the station.

Then click to see weather observations and forecasts.

To change the map : click on the green buttons with a black cross to zoom in, on the green button with a dash to zoom out, or on the green arrows for adjacent maps.


METAR-TAF: